Flag for Germany Weather past 2 weeks in Pirna, Saxony, Germany

Now
60 °F

Passing clouds.


Feels Like: 60 °F
Forecast: 45 / 67 °F
Wind: 2 mph from Southwest

Location: Dresden-Klotzsche

Current Time: May 24, 2015 at 9:38:48 PM

Latest Report: May 24, 2015 at 9:00 PM


Visibility: 25 mi

Pressure: 30.04 "Hg

Humidity: 58%

Dew point: 45 °F

Location of PirnaLocation

Historic Weather in Pirna — Graph

°F

Pirna temperature yesterday

Maximum temperature yesterday: 66 °F (at 3:00 PM)
Minimum temperature yesterday: 46 °F (at 4:00 AM)
Average temperature yesterday: 58 °F

Past Weeks' High & Low Weather Summary

 TemperatureHumidityPressure
High76 °F (May 12, 3:00 PM)97% (May 15, 6:00 AM)30.41 "Hg (May 15, 6:00 AM)
Low37 °F (May 15, 6:00 AM)28% (May 11, 12:00 PM)29.67 "Hg (May 19, 3:00 AM)
Average56 °F62%30.07 "Hg
* Reported May 9 8:00 PM — May 24 8:00 PM, Pirna, Weather by CustomWeather, © 2015

Note: Actual official high and low records may vary slightly from our data, if they occured in-between our weather recording intervals... More about our weather records

Advertising

Pirna weather history for previous 24 hours

 ConditionsComfort  
Time TempWeatherWind HumidityBarometerVisibility
8:00 PM
Sun, May 24
64 °FPassing clouds.1 mph52%30.03 "Hg28 mi
7:00 PM64 °FPassing clouds.2 mph50%30.04 "Hg28 mi
6:00 PM65 °FScattered clouds.2 mph51%30.05 "Hg28 mi
4:00 PM62 °FPartly sunny.3 mph59%30.09 "Hg28 mi
3:00 PM62 °FOvercast.2 mph58%30.10 "Hg25 mi
2:00 PM60 °FPartly sunny.3 mph58%30.11 "Hg25 mi
1:00 PM60 °FPartly sunny.3 mph63%30.12 "Hg22 mi
12:00 PM60 °FPartly sunny.2 mph60%30.13 "Hg17 mi
10:00 AM55 °FOvercast.3 mph67%30.14 "Hg16 mi
9:00 AM54 °FOvercast.3 mph76%30.13 "Hg14 mi
8:00 AM52 °FOvercast.3 mph80%30.13 "Hg9 mi
7:00 AM52 °FOvercast.3 mph89%30.12 "Hg7 mi
6:00 AM52 °FLow clouds.3 mph91%30.11 "Hg6 mi
5:00 AM53 °FLow clouds.5 mph90%30.10 "Hg8 mi
4:00 AM54 °FOvercast.5 mph89%30.10 "Hg16 mi
3:00 AM55 °FOvercast.2 mph87%30.09 "Hg16 mi
2:00 AM56 °FOvercast.3 mph86%30.09 "Hg19 mi
1:00 AM57 °FOvercast.3 mph79%30.08 "Hg19 mi
12:00 AM58 °FOvercast.5 mph72%30.07 "Hg22 mi
10:00 PM
Sat, May 23
60 °FOvercast.3 mph62%30.06 "Hg22 mi
9:00 PM62 °FOvercast.3 mph58%30.04 "Hg25 mi
Weather by CustomWeather, © 2015

See weather overviewHow to use our weather pages